Location: Kikino
(54.4440°N, 112.0940°W)
Time: 21:01:44
(UTC+00:00)

TIGRISAT - Visible Passes

Search period start: 29 November 2023 00:00
Search period end: 09 December 2023 00:00
Orbit: 598 x 676 km, 97.7° (Epoch: 29 November)

Date Brightness Start Highest point End Pass type
(mag) Time Alt. Az. Time Alt. Az. Time Alt. Az.
29 Nov ? 00:59:06 10° NNE 01:03:42 86° WNW 01:08:10 10° SSW visible
29 Nov ? 02:36:38 10° NNW 02:39:32 17° NW 02:42:23 10° W visible
29 Nov ? 23:45:48 10° NE 23:49:28 23° E 23:53:04 10° SE visible
30 Nov ? 01:21:49 10° N 01:26:18 56° WNW 01:30:39 10° SSW visible
30 Nov ? 03:00:11 10° NNW 03:01:51 12° NW 03:03:29 10° WNW visible
01 Dec ? 00:08:07 10° NNE 00:12:19 35° E 00:16:24 10° SSE visible
01 Dec ? 01:44:38 10° N 01:48:49 37° WNW 01:52:54 10° SW visible
02 Dec ? 00:30:35 10° NNE 00:35:04 55° E 00:39:24 10° S visible
02 Dec ? 02:07:33 10° N 02:11:16 25° WNW 02:14:54 10° WSW visible
03 Dec ? 00:53:10 10° NNE 00:57:44 86° ESE 01:02:09 10° SSW visible
03 Dec ? 02:30:36 10° NNW 02:33:38 18° NW 02:36:37 10° W visible
04 Dec ? 01:15:50 10° N 01:20:19 62° WNW 01:24:39 10° SSW visible
04 Dec ? 02:53:59 10° NNW 02:55:55 13° NW 02:57:50 10° WNW visible
05 Dec ? 00:02:11 10° NNE 00:06:13 32° E 00:10:09 10° SSE visible
05 Dec ? 01:38:35 10° N 01:42:49 40° WNW 01:46:54 10° SW visible
06 Dec ? 00:24:34 10° NNE 00:28:57 49° E 00:33:12 10° S visible
06 Dec ? 02:01:26 10° N 02:05:14 27° WNW 02:08:56 10° WSW visible
07 Dec ? 00:47:06 10° NNE 00:51:36 78° ESE 00:55:57 10° S visible
07 Dec ? 02:24:25 10° N 02:27:35 19° NW 02:30:41 10° W visible
08 Dec ? 01:09:42 10° N 01:14:10 68° WNW 01:18:29 10° SSW visible
08 Dec ? 02:47:40 10° NNW 02:49:50 14° NW 02:52:00 10° W visible
